Wind_Speed
13 12 11 11 11 11 12 12 12 12 11 9 8 8 9 8 8 7 6 6 5 5 5 5 5 5 5 6 6 5 5 6 6 6 6 5 5 5 4 4 3 3 3 3 3 3 3 2 3
13 12 12 11 12 12 13 13 13 13 12 10 9 9 9 9 8 8 6 5 5 5 5 5 4 4 5 5 5 5 5 6 6 6 5 5 5 5 5 4 3 2 3 3 3 3 3 3 3
13 12 12 12 13 13 14 14 14 14 13 12 12 11 11 10 9 8 7 6 6 5 5 4 4 4 5 5 5 5 5 5 7 6 6 6 5 5 5 4 3 3 2 2 3 3 3 3 3
12 11 11 12 14 14 14 14 15 14 13 13 13 12 13 12 10 8 8 7 6 6 6 5 5 5 5 5 5 5 5 6 7 7 6 5 5 5 5 4 3 3 3 2 2 2 2 2 3
11 11 12 13 14 14 15 15 15 14 13 13 13 13 13 12 10 9 8 8 7 7 6 6 6 6 6 5 5 5 6 6 6 6 6 6 6 5 5 4 3 3 3 3 3 3 2 2 2
9 10 11 13 14 15 15 15 15 14 13 13 13 12 12 12 11 9 9 9 8 7 7 7 6 6 6 5 5 5 5 6 5 5 5 5 5 5 4 4 3 2 2 3 3 3 3 2 2
10 10 11 12 13 14 14 14 15 14 13 13 13 13 13 13 12 10 10 9 8 8 8 8 8 6 5 5 4 4 5 5 5 6 6 5 5 4 4 3 3 2 2 2 2 2 2 2 2
10 10 10 10 11 13 13 14 14 13 13 12 13 13 13 13 12 11 10 9 8 8 8 8 7 7 6 5 5 5 5 6 6 6 6 5 5 5 4 3 3 2 1 1 1 1 2 2 2
9 9 10 10 11 12 13 13 13 13 12 12 12 12 13 12 11 11 10 9 8 8 7 7 7 7 6 6 6 6 6 6 7 6 6 5 5 4 3 2 2 2 1 1 0 1 1 2 2
8 9 10 10 11 12 13 13 12 12 12 12 12 12 12 11 11 11 10 9 8 7 7 7 6 6 6 6 6 7 6 7 7 6 5 5 5 4 3 2 2 1 2 1 0 1 1 1 2
6 8 9 10 11 11 12 12 12 12 12 12 12 12 11 11 11 11 10 9 8 8 7 7 7 7 7 7 7 7 8 8 7 6 5 4 4 3 3 2 1 1 2 1 0 1 1 1 2
6 6 7 9 10 10 11 11 11 12 12 11 11 11 11 10 10 10 10 9 9 9 9 8 7 8 7 8 8 8 8 7 6 5 4 4 3 2 2 2 1 2 1 1 0 1 1 1 2
5 6 7 8 9 9 10 10 10 11 12 11 10 10 10 10 10 10 10 9 9 9 8 8 8 8 7 7 7 7 7 6 5 4 3 2 2 2 2 2 2 2 2 1 1 2 2 1 1
5 5 6 7 8 9 10 9 8 9 11 10 9 10 10 9 9 9 9 9 9 9 8 8 8 8 7 7 6 6 5 5 4 4 3 3 2 2 2 2 2 2 2 2 2 3 3 3 3
4 5 5 6 6 7 8 8 8 7 9 9 9 9 9 9 8 8 8 8 8 8 8 8 8 7 6 6 6 5 5 4 3 3 3 3 2 1 1 2 2 2 2 2 3 3 4 4 4
2 3 4 4 5 5 6 8 7 7 7 8 8 8 8 8 8 8 8 8 7 7 7 7 7 7 5 5 4 4 4 4 3 2 2 2 1 1 1 1 2 3 3 3 3 4 5 5 6
0 1 3 3 3 3 4 6 5 5 5 6 6 7 7 7 7 7 7 7 7 7 7 6 6 6 5 4 4 4 4 4 4 3 2 1 1 1 2 2 3 4 4 4 4 5 5 6 7
2 1 0 2 2 3 4 4 3 3 3 4 4 5 5 6 6 6 6 6 6 6 6 5 5 5 5 4 4 4 4 3 3 2 2 2 2 2 2 2 3 4 5 5 5 5 5 6 7
4 3 1 1 2 3 3 4 3 2 2 3 3 4 4 4 5 5 5 5 5 5 5 5 3 4 4 3 3 3 3 2 2 2 2 3 3 3 3 4 3 4 5 6 6 6 6 7 8
5 4 3 3 3 4 4 4 4 4 3 3 3 4 3 3 3 4 4 4 5 5 4 4 3 3 3 3 3 3 3 2 2 2 2 3 3 3 4 4 4 5 5 6 7 7 7 8 9
7 5 5 5 5 5 5 5 5 6 5 4 4 4 3 3 3 3 3 4 4 4 4 4 3 4 3 3 3 4 4 3 3 3 3 4 4 4 4 5 5 6 6 7 7 7 8 8 9
9 8 7 7 7 6 7 7 6 7 6 6 5 5 4 5 4 4 4 4 4 4 4 4 4 4 4 4 4 4 5 5 5 5 5 4 5 5 5 5 5 6 7 7 8 9 9 9 9
10 10 10 10 9 8 8 8 6 7 8 7 6 5 5 5 5 5 5 5 4 4 4 4 4 5 5 5 5 6 6 6 6 6 6 6 6 6 7 7 7 7 8 8 9 10 10 10 10
13 13 12 11 11 10 9 10 8 8 9 9 8 8 7 7 6 6 6 5 5 5 5 5 5 5 6 6 7 7 8 8 8 7 8 8 8 8 8 9 9 9 9 9 10 10 11 10 10
15 14 14 13 12 11 11 11 9 8 10 11 10 9 8 8 7 7 7 7 7 7 7 7 7 7 7 8 9 9 10 10 10 10 10 10 9 10 10 10 10 9 10 10 10 11 11 11 11
16 16 16 16 15 13 13 12 10 10 11 12 12 11 9 8 8 8 8 8 7 7 8 8 8 8 8 9 10 11 12 12 12 11 11 11 11 11 12 12 11 11 12 12 11 11 11 12 12
18 18 17 17 17 16 15 13 12 12 13 14 13 12 11 10 10 10 10 10 9 9 9 9 10 10 10 11 12 13 13 13 13 12 12 12 12 13 13 14 13 13 13 13 13 13 12 12 13
19 19 19 19 19 18 17 15 14 14 15 15 14 14 13 13 13 12 12 12 11 11 10 11 12 12 13 13 14 14 15 15 14 14 14 14 14 14 15 15 15 15 15 14 14 14 14 14 13
20 21 20 20 20 20 19 18 16 16 16 16 16 15 15 14 13 12 12 13 13 13 13 14 14 14 15 16 16 17 17 16 16 16 16 16 16 16 16 16 16 17 16 16 15 15 15 15 15
21 21 22 22 22 22 21 20 18 17 16 17 17 17 16 15 14 14 14 15 15 16 16 16 17 17 18 19 19 19 18 17 17 18 18 18 18 18 18 17 18 17 17 16 16 16 16 17 16
Wind_Direction
73 72 71 71 68 66 63 61 60 57 53 58 61 63 61 59 60 60 67 61 66 81 85 81 84 89 97 106 114 124 135 140 146 138 136 135 133 137 134 135 140 153 166 169 185 197 205 215 226
72 72 73 73 70 68 63 58 58 55 54 57 63 64 61 63 64 64 66 65 77 91 90 91 94 96 100 108 117 124 132 137 141 141 141 138 136 137 132 127 134 143 158 170 181 189 203 207 220
70 71 72 71 70 68 64 60 59 55 56 58 62 64 65 68 68 62 65 77 81 84 86 92 100 104 108 113 114 113 122 131 136 136 138 137 136 138 135 124 118 128 147 159 169 177 204 222 227
69 69 70 67 67 66 63 60 61 60 58 58 58 60 64 64 65 61 67 78 77 76 76 77 92 108 113 112 111 111 122 136 136 133 132 132 134 138 137 132 138 145 152 167 171 174 197 219 226
69 68 67 67 65 63 61 61 61 59 59 58 58 60 63 62 60 60 68 75 73 75 75 79 88 105 113 115 119 125 129 135 137 138 136 139 143 145 140 144 148 161 176 186 185 183 192 205 229
67 67 67 66 63 60 58 59 60 60 61 61 59 59 60 58 57 60 68 71 72 76 79 86 89 96 105 115 125 130 134 135 137 143 142 140 148 150 144 150 154 167 166 180 189 207 210 222 234
69 68 66 67 65 59 58 60 61 62 61 61 59 57 57 54 53 57 62 67 70 75 79 86 91 94 95 102 116 132 140 143 138 137 138 140 143 148 150 156 165 164 161 184 187 206 212 212 231
66 70 70 67 64 59 56 56 60 62 61 61 59 56 57 56 54 57 60 66 68 72 77 80 85 89 94 102 107 111 126 135 135 139 141 144 151 158 162 162 164 160 150 159 153 187 230 232 238
70 71 68 66 63 62 58 53 57 60 60 60 59 55 54 54 57 57 57 62 70 74 76 79 81 83 88 95 103 107 116 127 134 138 145 148 153 163 163 161 173 179 162 128 149 273 240 223 234
73 72 68 66 65 68 62 55 57 58 58 57 58 56 54 54 57 57 53 54 62 71 79 84 84 86 87 93 100 106 111 117 124 131 143 145 148 156 161 157 157 165 164 166 188 316 209 196 227
75 73 68 64 68 68 64 60 58 60 56 54 55 57 58 56 55 52 51 52 54 59 67 78 84 94 95 98 104 110 114 117 121 125 129 137 148 157 172 161 160 167 161 190 272 320 291 188 214
76 72 68 65 67 65 65 62 58 56 53 52 51 53 55 55 52 47 47 50 51 52 58 68 73 83 89 97 102 107 111 110 112 116 120 135 145 161 170 169 184 178 179 186 297 357 320 203 211
74 69 69 66 64 62 64 59 54 52 50 49 49 48 49 51 51 46 44 45 49 51 53 61 71 78 82 88 94 100 101 100 102 101 108 128 157 184 196 191 197 211 221 247 280 310 307 267 245
68 69 68 66 67 66 67 60 56 54 48 48 49 44 44 46 47 46 46 47 51 52 55 60 66 74 80 88 90 99 100 98 96 87 89 104 141 183 202 226 235 235 266 275 286 293 292 289 281
65 65 63 59 64 68 67 57 56 57 49 50 52 47 44 42 40 44 46 46 50 53 57 61 64 71 77 87 89 93 97 93 86 86 82 92 102 133 215 246 258 262 280 284 287 297 288 283 282
65 73 60 52 59 60 57 51 53 52 52 49 48 49 44 42 43 43 44 45 48 52 56 62 64 72 73 76 86 91 92 90 87 84 72 74 66 35 326 298 278 280 282 285 289 290 285 283 284
335 46 60 47 44 44 44 42 46 46 48 46 43 44 45 46 44 43 43 44 46 49 53 60 66 67 71 78 81 86 91 84 79 68 59 47 17 340 325 301 285 284 282 284 291 289 288 284 285
251 262 145 21 1 7 19 29 39 32 33 38 36 33 37 41 38 38 40 40 40 44 48 56 63 66 68 69 66 67 74 78 66 49 37 28 4 340 331 318 301 286 285 283 285 283 285 280 282
231 231 239 324 330 329 349 357 359 349 356 6 20 21 22 32 33 32 33 32 33 34 40 52 60 57 51 51 56 52 46 32 35 24 355 352 350 343 336 336 319 298 293 285 281 280 280 279 283
234 239 263 293 303 302 305 316 325 327 335 335 350 1 1 8 14 19 22 23 25 22 21 32 47 38 29 31 31 17 4 357 355 353 347 342 340 340 331 330 327 314 301 287 286 282 281 283 285
242 254 264 280 283 292 296 302 308 312 320 321 326 334 342 331 322 336 352 358 0 3 3 6 13 11 13 11 5 349 340 335 330 328 323 321 317 318 328 322 316 314 307 299 292 287 290 289 288
246 254 258 261 272 284 291 296 294 302 307 312 321 325 324 316 304 301 314 324 335 341 343 342 344 343 339 341 340 336 331 322 316 313 312 311 310 310 316 319 313 312 307 298 290 289 290 289 288
246 250 255 259 267 275 286 291 294 296 306 312 313 312 305 302 296 290 294 303 311 316 320 321 324 323 320 319 319 322 323 318 313 309 304 299 303 309 310 312 315 312 306 297 290 289 289 286 283
246 250 257 263 268 276 286 289 293 295 301 303 301 299 296 292 293 282 290 290 296 297 297 296 300 307 309 308 308 309 309 308 307 305 304 300 299 302 306 308 309 309 308 304 296 288 285 284 283
244 251 260 265 269 277 281 285 292 294 296 298 297 298 293 289 293 283 288 285 285 285 286 288 287 292 296 296 297 300 300 299 298 298 299 300 300 299 300 302 306 307 308 306 302 294 287 285 287
244 252 260 266 271 276 279 282 288 290 289 292 293 294 291 289 289 289 286 281 276 285 281 282 285 286 288 290 292 294 295 293 293 290 291 293 297 297 295 296 296 296 301 303 301 297 293 290 289
245 251 258 264 268 272 275 279 284 285 286 290 291 293 292 286 284 287 284 280 278 281 282 283 286 289 289 288 289 292 293 293 291 287 285 286 291 294 293 292 295 296 297 297 295 299 296 294 290
247 251 256 262 268 272 275 280 287 287 285 286 289 291 292 288 287 286 283 280 277 278 282 281 284 289 292 293 290 290 291 290 289 286 284 287 289 290 291 293 290 292 292 291 292 294 294 294 292
247 250 254 260 266 271 275 280 284 283 279 280 283 288 289 286 287 285 284 282 283 281 281 279 282 285 288 288 289 289 290 285 286 285 284 285 287 288 288 289 289 289 288 288 290 290 290 289 287
247 251 255 259 265 269 275 280 281 281 277 277 280 282 281 278 276 276 279 281 286 285 283 280 282 285 287 288 288 289 288 284 286 284 283 284 285 286 287 289 289 290 286 287 289 289 287 285 284
Height
5883 5882 5882 5882 5882 5880 5878 5878 5877 5876 5876 5875 5875 5874 5874 5874 5874 5876 5873 5871 5871 5871 5871 5871 5871 5871 5871 5871 5872 5873 5874 5875 5876 5877 5878 5879 5880 5880 5881 5882 5883 5883 5884 5885 5885 5886 5887 5887 5888
5884 5884 5885 5884 5882 5881 5880 5879 5878 5877 5877 5876 5876 5875 5875 5874 5874 5873 5872 5872 5872 5871 5871 5871 5871 5871 5871 5872 5873 5874 5875 5875 5876 5877 5878 5879 5880 5880 5882 5882 5883 5883 5884 5884 5885 5885 5886 5886 5887
5887 5887 5887 5885 5883 5882 5882 5880 5879 5879 5878 5878 5877 5876 5876 5875 5875 5874 5873 5872 5873 5872 5872 5872 5871 5871 5872 5873 5873 5874 5875 5875 5876 5877 5878 5879 5880 5881 5881 5883 5883 5884 5884 5884 5884 5885 5885 5886 5886
5889 5889 5888 5887 5884 5884 5883 5882 5880 5880 5880 5879 5879 5878 5877 5877 5876 5875 5874 5873 5873 5873 5872 5871 5870 5871 5872 5873 5874 5874 5875 5876 5876 5877 5878 5879 5880 5881 5882 5883 5883 5883 5884 5884 5884 5885 5885 5885 5885
5891 5890 5889 5887 5886 5885 5884 5884 5883 5882 5882 5881 5881 5880 5879 5878 5877 5876 5874 5874 5874 5874 5873 5872 5871 5871 5872 5873 5874 5875 5876 5876 5877 5878 5879 5880 5881 5881 5882 5883 5883 5883 5883 5884 5884 5884 5884 5885 5884
5892 5892 5891 5889 5888 5887 5886 5885 5884 5884 5883 5883 5882 5881 5880 5880 5879 5878 5876 5876 5875 5875 5874 5873 5873 5873 5873 5874 5874 5875 5875 5876 5877 5878 5879 5880 5881 5881 5882 5883 5883 5883 5883 5884 5884 5884 5884 5884 5884
5894 5893 5892 5891 5890 5889 5888 5887 5886 5886 5885 5885 5884 5883 5882 5881 5880 5879 5878 5877 5877 5876 5875 5874 5874 5874 5874 5874 5874 5874 5875 5876 5877 5878 5879 5880 5881 5882 5882 5883 5883 5883 5883 5884 5884 5884 5884 5884 5884
5895 5895 5893 5892 5891 5891 5890 5889 5888 5888 5887 5886 5886 5885 5884 5883 5882 5881 5880 5879 5878 5877 5877 5876 5876 5875 5875 5874 5874 5874 5874 5876 5877 5878 5880 5880 5881 5882 5883 5883 5883 5883 5883 5883 5883 5883 5884 5883 5883
5896 5897 5894 5894 5893 5893 5892 5891 5890 5889 5889 5888 5887 5886 5885 5884 5883 5882 5881 5880 5879 5879 5878 5878 5877 5876 5876 5875 5874 5875 5875 5876 5878 5879 5880 5881 5881 5882 5883 5883 5883 5883 5883 5883 5883 5883 5883 5883 5883
5898 5897 5896 5895 5895 5894 5894 5893 5892 5891 5891 5889 5888 5887 5887 5886 5885 5884 5883 5882 5881 5880 5879 5879 5878 5878 5877 5876 5876 5876 5876 5877 5879 5880 5880 5881 5882 5882 5883 5883 5883 5883 5883 5883 5883 5883 5883 5883 5882
5899 5898 5897 5897 5896 5896 5895 5895 5894 5893 5892 5891 5890 5889 5888 5887 5886 5886 5885 5884 5882 5881 5880 5880 5879 5879 5878 5877 5877 5877 5878 5879 5879 5880 5881 5882 5882 5882 5883 5883 5883 5883 5883 5883 5883 5882 5882 5882 5882
5900 5899 5898 5898 5897 5897 5896 5896 5896 5895 5894 5893 5892 5890 5889 5889 5888 5887 5886 5885 5884 5882 5881 5881 5880 5880 5879 5879 5879 5879 5879 5880 5880 5881 5881 5882 5882 5882 5883 5883 5883 5883 5882 5882 5883 5882 5882 5882 5882
5901 5901 5900 5899 5898 5898 5897 5897 5897 5896 5895 5894 5893 5892 5891 5890 5889 5888 5887 5886 5885 5884 5883 5883 5882 5881 5881 5881 5880 5880 5881 5881 5881 5881 5881 5882 5882 5882 5882 5882 5882 5883 5882 5882 5883 5883 5882 5882 5882
5902 5902 5901 5900 5899 5899 5899 5898 5898 5897 5897 5896 5894 5893 5892 5891 5890 5889 5889 5887 5886 5885 5884 5884 5883 5883 5882 5882 5882 5882 5882 5882 5882 5882 5882 5881 5882 5882 5882 5882 5882 5882 5882 5882 5882 5882 5882 5882 5882
5903 5903 5903 5902 5901 5900 5900 5900 5899 5898 5898 5897 5896 5895 5893 5892 5891 5890 5890 5888 5887 5886 5886 5885 5884 5884 5884 5883 5883 5883 5883 5883 5883 5883 5882 5882 5882 5882 5882 5882 5882 5882 5882 5882 5882 5882 5882 5882 5881
5904 5904 5903 5903 5902 5901 5902 5901 5900 5899 5898 5898 5897 5896 5894 5893 5892 5891 5890 5889 5888 5887 5887 5886 5885 5885 5885 5884 5884 5884 5883 5883 5883 5883 5882 5882 5882 5881 5881 5881 5882 5881 5881 5881 5881 5881 5881 5880 5880
5903 5904 5903 5904 5902 5901 5901 5901 5900 5899 5899 5898 5897 5896 5895 5894 5893 5892 5891 5890 5889 5888 5887 5887 5886 5885 5885 5885 5885 5884 5884 5883 5883 5883 5883 5882 5882 5881 5881 5881 5881 5881 5881 5880 5880 5880 5880 5879 5879
5903 5903 5903 5903 5903 5902 5901 5901 5900 5900 5899 5898 5897 5897 5896 5894 5894 5893 5892 5891 5890 5889 5888 5887 5887 5886 5886 5885 5885 5884 5884 5884 5883 5883 5883 5882 5882 5881 5881 5880 5880 5880 5879 5879 5879 5879 5878 5878 5877
5902 5903 5903 5903 5902 5902 5901 5901 5900 5900 5899 5898 5897 5897 5896 5895 5894 5893 5892 5891 5890 5889 5888 5888 5887 5887 5886 5886 5885 5885 5884 5884 5883 5883 5882 5882 5881 5881 5880 5880 5879 5878 5878 5878 5877 5877 5877 5876 5876
5902 5902 5902 5902 5901 5901 5901 5901 5900 5899 5899 5898 5897 5896 5896 5895 5894 5893 5892 5891 5890 5889 5888 5888 5887 5887 5886 5886 5885 5885 5884 5884 5883 5883 5882 5882 5881 5880 5880 5879 5878 5877 5877 5876 5876 5875 5875 5874 5874
5901 5901 5901 5901 5901 5900 5900 5900 5900 5899 5898 5897 5897 5896 5895 5894 5893 5893 5892 5891 5890 5889 5889 5888 5887 5887 5886 5886 5885 5885 5884 5884 5883 5882 5882 5881 5880 5879 5878 5878 5877 5876 5876 5875 5874 5873 5873 5872 5871
5899 5900 5900 5900 5899 5899 5900 5899 5899 5898 5897 5896 5896 5895 5894 5893 5892 5892 5891 5891 5890 5889 5888 5888 5887 5886 5886 5885 5885 5884 5884 5883 5882 5881 5880 5880 5879 5878 5877 5876 5876 5875 5874 5873 5872 5871 5871 5870 5869
5898 5898 5898 5898 5898 5898 5898 5898 5899 5897 5896 5896 5895 5894 5893 5892 5891 5891 5890 5889 5889 5888 5888 5887 5886 5886 5885 5885 5884 5884 5883 5882 5881 5880 5879 5878 5877 5876 5875 5874 5874 5873 5871 5870 5870 5869 5868 5867 5867
5895 5896 5896 5896 5896 5896 5897 5896 5897 5896 5895 5895 5894 5893 5892 5891 5889 5889 5889 5888 5888 5887 5886 5886 5885 5885 5884 5883 5883 5882 5881 5880 5879 5878 5877 5876 5875 5874 5874 5872 5871 5870 5869 5868 5867 5866 5866 5865 5864
5892 5893 5894 5893 5894 5894 5895 5894 5895 5894 5894 5893 5892 5891 5890 5889 5888 5887 5887 5887 5886 5885 5885 5884 5883 5883 5882 5882 5881 5880 5879 5878 5877 5876 5875 5874 5873 5873 5871 5870 5869 5868 5867 5866 5864 5863 5863 5862 5861
5889 5890 5891 5891 5891 5892 5892 5892 5893 5892 5892 5891 5890 5889 5888 5887 5886 5885 5885 5885 5884 5883 5883 5882 5881 5881 5880 5879 5878 5878 5877 5876 5875 5874 5872 5871 5871 5870 5869 5867 5866 5865 5864 5863 5861 5860 5859 5859 5858
5886 5886 5888 5888 5888 5888 5889 5890 5890 5890 5889 5888 5887 5886 5885 5885 5884 5883 5883 5882 5881 5881 5880 5880 5879 5878 5878 5877 5876 5875 5874 5872 5871 5870 5869 5868 5867 5866 5865 5864 5863 5862 5861 5860 5858 5857 5856 5855 5854
5882 5883 5884 5884 5884 5884 5885 5886 5887 5887 5886 5885 5884 5884 5883 5882 5881 5881 5880 5879 5879 5878 5877 5877 5876 5875 5874 5873 5872 5871 5870 5869 5867 5866 5865 5864 5863 5862 5861 5860 5859 5858 5857 5856 5855 5853 5853 5852 5851
5878 5879 5879 5880 5880 5880 5880 5884 5883 5882 5882 5882 5881 5881 5880 5879 5878 5877 5877 5876 5875 5874 5874 5873 5872 5872 5871 5869 5868 5867 5866 5865 5864 5862 5861 5860 5859 5858 5857 5855 5854 5853 5852 5851 5850 5849 5849 5848 5847
5873 5874 5875 5876 5876 5876 5876 5880 5878 5878 5877 5877 5877 5876 5876 5875 5874 5874 5873 5872 5872 5871 5870 5869 5868 5867 5866 5865 5864 5862 5861 5860 5859 5858 5856 5855 5854 5853 5852 5851 5849 5848 5847 5846 5845 5845 5844 5843 5843